Find Starlink 31875

NORAD ID: 59674 Int'l Des: 2024-084 Owner: SPXS Country: US Constellation: starlink operational
LEOCIRCULAR

Current View

Loading 3D Globe...

About Starlink 31875

Starlink 31875 (NORAD 59674) is a starlink constellation satellite (v2 mini) launched May 6, 2024 by SPXS of US. It operates in LEO, CIRCULAR orbit with a mass of 730.00 kg.

About Starlink 31875

Description loading...

Upcoming Passes

Passes for default location (London). Set your location on the main map for personalized predictions.

Altitude History

Loading altitude history...

Two-Line Element Set

1 59674U 24084W 26175.00274090 -.00000352 00000-0 -32817-5 0 9990
2 59674 43.0031 157.8264 0001227 275.7467 84.3245 15.27574628120676
Epoch: Jun 24, 2026 • Age: 29 hours

Current Status

Altitude 487.0 km
Velocity 7.63 km/s
Sub-Earth Point 43.15°N, 101.22°W
Launch Date May 6, 2024
Age 2.1 years
Type internet

Technical Details

Classification Payload
Mass 730.00 kg
Dry Mass 700.00 kg
Total Mass 730.00 kg
Length 0.30 m
Diameter 4.10 m
Span 29.00 m
Shape Box + pan
Manufacturer SPXS
Bus Type Starlink V2M
Phase Status In Orbit
Owner/State SPXS/US

Most Searched